Regional Weather Roundup
Issued by NWS

Home | Current Version | Previous Version | Graphics & Text | Print | Product List | Glossary On
Versions: 1 2 3 4 5 6 7 8 9 10 11 12 13 14 15 16 17 18 19 20 21 22 23 24 25 26 27 28 29 30 31 32 33 34 35 36 37 38 39 40 41 42 43 44 45 46 47 48 49 50
000
ASUS43 KLMK 011810
RWRKY
KENTUCKY REGIONAL WEATHER ROUNDUP
NATIONAL WEATHER SERVICE LOUISVILLE KY
200 PM EDT FRI AUG 01 2014

NOTE "FAIR" INDICATES FEW OR NO CLOUDS BELOW 12,000 FEET
WITH NO SIGNIFICANT WEATHER AND/OR OBSTRUCTIONS TO VISIBILITY.

KYZ001>023-026-027-061>063-070>075-011900-
WESTERN AND SOUTH CENTRAL KENTUCKY

CITY           SKY/WX    TMP DP  RH WIND       PRES   REMARKS
PADUCAH        PTSUNNY   87  65  47 E5        30.07F
HENDERSON      SUNNY     82  61  47 E5        30.07F
OWENSBORO      MOSUNNY   82  60  47 N3        30.09F
HOPKINSVILLE   PTSUNNY   85  54  34 NE8       30.07F
BOWLING GREEN  MOSUNNY   87  52  29 VRB6      30.08F
GLASGOW        SUNNY     85  55  36 NE5       30.08F
$$

KYZ024-025-028>034-038-045-046-053-011900-
NORTH CENTRAL KENTUCKY

CITY           SKY/WX    TMP DP  RH WIND       PRES   REMARKS
LOUISVILLE/SDF PTSUNNY   83  57  41 E5        30.08F
LOUISVILLE/LOU MOSUNNY   86  55  34 NW6       30.09F
FORT KNOX      MOSUNNY   80  61  51 VRB2      30.09F
$$

KYZ035>037-039>044-047>052-055>060-089>105-011900-
NORTHEAST KENTUCKY

CITY           SKY/WX    TMP DP  RH WIND       PRES   REMARKS
LEXINGTON      MOSUNNY   84  59  42 VRB5      30.11F
COVINGTON      PTSUNNY   82  57  42 CALM      30.11S
FRANKFORT      PTSUNNY   83  56  39 N8        30.09F
$$

KYZ054-064>069-076>088-106>120-011900-
SOUTHEAST KENTUCKY

CITY           SKY/WX    TMP DP  RH WIND       PRES   REMARKS
JACKSON        SUNNY     80  62  54 VRB3      30.11F
LONDON         MOSUNNY   82  60  47 CALM      30.11F
SOMERSET       MOSUNNY   81  59  47 E6        30.10F
MIDDLESBORO    PTSUNNY   80  63  56 CALM      30.10F
MONTICELLO     CLEAR     84  65  52 NE6       30.11F
$$



USA.gov is the U.S. government's official web portal to all federal, state and local government web resources and services.